DELTA 1 DEB, 42081

Orbit data source: Space-Track

DELTA 1 DEB, 42081 is space debris in SSO originally from a launch on Sun, 15 Dec 1968 UTC launched from the Air Force Western Test Range (AFWTR). Debris objects in space refer to the collection of defunct objects orbiting the Earth. Examples of debris include non-operational satellites, rocket bodies, and fragments generated from explosions, collisions, or faulty payload assembly.

Loading next visibility...
Identifier
42081, 1968-114H
Orbit
SSO
Last TLE update
2 days ago
Origin
Manufacturer
Aerojet
Mission
Spacecraft
Bus & Motor
Unknown
Mass
Unknown
Launch date (UTC)
1968-12-15 (57 years ago)
Launch vehicle
Unknown
Launch site
Air Force Western Test Range (AFWTR)
Object type
Payload
Rocket body
Debris
Shape & HBR
Unknown
Radar Cross Section
Small (<0.1 m²)

Expand to show TLE details & history

TLE from 2 days ago
0 DELTA 1 DEB
1 42081U 68114H   25180.74550973  .00000030  00000-0  58898-3 0  9995
2 42081 101.6510 141.9101 0115733 282.7288  76.0858 12.31736175459373
Epoch: 2025-06-29T17:53Z
TLE epoch observation values (Epoch: 2025-06-29T17:53:32.04Z)
Latitude
0.00003°
Longitude
-44.53866°
Altitude
1,523.341 km
Speed
7.113 km/s
True Right ascension
09h 27m 38s
True Declination
0° 00' 00"
Sunlit
Object was in daylight at epoch
Visualization orbit readout
Latitude
-51.54109°
Longitude
-27.9714°
Altitude
1,480.116 km
Speed
7.16 km/s
Apparent Right ascension
10h 22m 30s
Apparent Declination
-46° 12' 03"
Sunlit
Object is in daylight
Visualization observer readout
Local Sidereal Time
22:11:06
Azimuth
197.36° SSW
Elevation
-83.381°
Doppler factor
1
Orbital elements
Apogee altitude
1,631.027 km
Perigee altitude
1,447.763 km
Semi-major axis
7,917.532 km
Eccentricity
0.01157
Inclination
101.651°
RAAN
141.9101°
Arg. of periapsis
282.7288°
True anomaly
Unknown
Mean anomaly
76.0858°
Eccentric anomaly
Unknown
Mean motion
3.08076 °/min
Orbital period
116.85 mins
BSTAR
0.00058898
Loading maneuver chart data...
Loading SW <> Apogee altitude chart data...
Loading historical data...
Loading historical data...
Loading historical data...
Loading historical data...
Loading historical data...
Loading historical data...
Loading historical data...

DELTA 1 DEB Visibility forecast

Observer location: undefined°, undefined°

Span
Click to sort rows by Start time (UTC) header in descending order
Start Az.
Max El. time (UTC)
Max El. Az.
Max El.
End time (UTC)
End Az.
16 mins2025-07-01 11:25:39.004Z5.924° NNE2025-07-01 11:33:39.004Z304.033° NW35.294°2025-07-01 11:41:39.004Z232.056° WSW
8 mins2025-07-01 18:51:39.004Z72.887° E2025-07-01 18:55:39.004Z44.092° NE15.549°2025-07-01 18:59:39.004Z16.288° NNE
15 mins2025-07-01 20:41:39.004Z143.04° SSE2025-07-01 20:48:39.004Z56.609° ENE42.307°2025-07-01 20:56:39.004Z348.836° N
13 mins2025-07-01 22:37:39.004Z215.242° SW2025-07-01 22:43:39.004Z266.045° W25.702°2025-07-01 22:50:39.004Z320.223° NNW
12 mins2025-07-02 08:57:39.004Z48.363° ENE2025-07-02 09:03:39.004Z99.138° ESE24.618°2025-07-02 09:09:39.004Z145.505° SSE
|